Showing default

JCSAT 17, 45245

Orbit data source: Space-Track

JCSAT 17, 45245 is a payload satellite owned by Sky Perfect JSAT (JP) in GEO that was launched on Tue, 18 Feb 2020 UTC via an ARIANE 5ECA+ launch vehicle from the French Guiana (FRGUI). Payload-class satellites include a variety of spacecraft equipped with specific instruments for various scientific and technological missions. These include communications satellites like Starlink; space stations such as the ISS; scientific satellites like the Hubble; Earth observation satellites from companies like Planet Labs, Umbra, and HawkEye 360; GPS; miniature CubeSats for education and research; and military/defense satellites.

Not visible in the next 10 days
Identifier
45245, 2020-013A
Orbit
GEO
Last TLE update
22 hours ago
Origin
Manufacturer
LMCSS
Mission
Operational Commercial Communications
Bus & Motor
A2100, LEROS-1C
Mass
5,857 kg wet, ~3,000 kg dry
Launch date (UTC)
2020-02-18 (5 years ago)
Launch vehicle
ARIANE 5ECA+
Launch site
French Guiana (FRGUI)
Object type
Payload
Rocket body
Debris
Shape & HBR
Box + 2 Pan + 1 Dish, Unknown HBR
Radar Cross Section
30.713 m², Large (>1 m²)

Expand to show TLE details & history

TLE from 22 hours ago
0 JCSAT 17
1 45245U 20013A   25169.38788565 -.00000310  00000-0  00000-0 0  9994
2 45245   5.4384 353.2882 0003345 105.8075  83.4223  1.00271146 19585
Epoch: 2025-06-18T09:18Z
TLE epoch observation values (Epoch: 2025-06-18T09:18:33.32Z)
Latitude
-0.87775°
Longitude
135.99534°
Altitude
35,784.801 km
Speed
3.075 km/s
True Right ascension
12h 10m 01s
True Declination
0° 52' 37"
Sunlit
Object was in daylight at epoch
Visualization orbit readout
Latitude
2.49008°
Longitude
99.69419°
Altitude
35,776.46 km
Speed
3.075 km/s
Apparent Right ascension
09h 22m 45s
Apparent Declination
-2° 52' 18"
Sunlit
Object is in daylight
Visualization observer readout
Local Sidereal Time
17:39:49
Azimuth
291.338° WNW
Elevation
-27.612°
Doppler factor
1
Orbital elements
Apogee altitude
35,801.935 km
Perigee altitude
35,773.726 km
Semi-major axis
42,165.967 km
Eccentricity
0.00033
Inclination
5.4384°
RAAN
353.2882°
Arg. of periapsis
105.8075°
True anomaly
Unknown
Mean anomaly
83.4223°
Eccentric anomaly
Unknown
Mean motion
0.25067 °/min
Orbital period
1,436.16 mins
BSTAR
0
Loading historical data...
45245 neighbors
Loading maneuver chart data...
Loading SW <> Apogee altitude chart data...
Loading historical data...
Loading historical data...
Loading historical data...
Loading historical data...
Loading historical data...
Loading historical data...
Loading historical data...
Other satellites on launch #13 in the year 2020 (2020-02-18 UTC)

JCSAT 17 Visibility

Observer location: undefined°, undefined°

JCSAT 17 is likely not visible in the next few days
Span
Click to sort rows by Start time (UTC) header in descending order
Start Az.
Max El. time (UTC)
Max El. Az.
Max El.
End time (UTC)
End Az.
|